Hourly Data Report for October 26, 2016

All times are specified in Local Standard Time (LST). Add 1 hour to adjust for Daylight Saving Time where and when it is observed.

PENTICTON A
BRITISH COLUMBIA

49°27'45.000" N
119°36'08.000" W
344.40 m
1126146
71889
YYF

Download Data

Hourly Data (October 2016)
Hourly Data Report for October 26, 2016
Temp Definition
°C
Dew Point Temp Definition
°C
Rel Hum Definition
%
Wind Dir Definition
10's deg

Wind Spd Definition
km/h
Visibility Definition
km
Stn Press Definition
kPa
Hmdx Definition


Wind Chill Definition


Weather Definition


TIME
00:00 Legend Double Dagger 8.3 4.7 78 1 10 24.1 97.72     LegendNANA
01:00 Legend Double Dagger 8.0 5.1 82 35 7 24.1 97.77     Mostly Cloudy
02:00 Legend Double Dagger 7.1 4.8 85 36 9 24.1 97.72     LegendNANA
03:00 Legend Double Dagger 5.4 4.1 91 36 1 24.1 97.72     LegendNANA
04:00 Legend Double Dagger 5.1 3.9 92 3 7 24.1 97.68     Mostly Cloudy
05:00 Legend Double Dagger 6.1 4.4 89 1 8 24.1 97.62     LegendNANA
06:00 Legend Double Dagger 5.7 4.5 92 34 5 24.1 97.59     LegendNANA
07:00 Legend Double Dagger 5.9 5.0 94 36 2 24.1 97.60     Cloudy
08:00 Legend Double Dagger 7.7 6.2 90 4 4 24.1 97.56     Rain
09:00 Legend Double Dagger 7.9 7.2 95 13 4 16.1 97.58     Rain
10:00 Legend Double Dagger 8.1 7.4 95 36 1 16.1 97.53     Rain
11:00 Legend Double Dagger 8.6 7.9 95 17 4 24.1 97.46     Rain
12:00 Legend Double Dagger 8.7 7.5 92 36 3 24.1 97.39     Rain
13:00 Legend Double Dagger 8.9 7.5 91 2 3 19.3 97.34     Cloudy
14:00 Legend Double Dagger 9.3 8.1 92 34 10 24.1 97.28     LegendNANA
15:00 Legend Double Dagger 9.1 8.2 94 35 10 19.3 97.27     Rain Showers
16:00 Legend Double Dagger 9.1 8.2 94 36 6 19.3 97.25     Cloudy
17:00 Legend Double Dagger 8.8 8.2 96 36 5 19.3 97.20     Rain Showers
18:00 Legend Double Dagger 8.9 8.0 94 34 4 19.3 97.21     LegendNANA
19:00 Legend Double Dagger 8.9 7.8 93 26 5 19.3 97.16     Rain Showers
20:00 Legend Double Dagger 8.7 8.3 97 1 3 19.3 97.10     Rain Showers
21:00 Legend Double Dagger 8.6 8.3 98 36 2 19.3 97.12     Rain Showers
22:00 Legend Double Dagger 8.4 8.3 99 1 5 19.3 97.06     Rain
23:00 Legend Double Dagger 8.5 8.4 99 35 5 8.1 97.04     Rain,Fog

Notes on Data Quality.

Legend

  • E = Estimated
  • M = Missing
  • NA = Not Available
  • ‡ = Partner data that is not subject to review by the National Climate Archives
Date modified: